Weather History for Malaga, Spain

Change the Weather History Date:

Thursday, December 6, 2012

  Actual Average Record
Temperature  
Mean Temperature 55 °F -  
Max Temperature 62 °F 60 °F 68 °F (2008)
Min Temperature 48 °F 45 °F 39 °F (1996)
Degree Days  
Heating Degree Days 10    
Growing Degree Days 5 (Base 50)    
Moisture  
Dew Point 45 °F    
Average Humidity 69    
Maximum Humidity 94    
Minimum Humidity 46    
Precipitation  
Precipitation 0.00 in 0.12 in - ()
Sea Level Pressure  
Sea Level Pressure 30.16 in    
Wind  
Wind Speed 8 mph ()    
Max Wind Speed 18 mph    
Max Gust Speed -    
Visibility 7.1 miles    
Events      
Averages and records for this station are not official NWS values.
T = Trace of Precipitation, MM = Missing Value Source: Averaged Metar Reports

Daily Weather History Graph

Daily Weather History Graph

Search for Another Location

Airport:

Trip Planner

Search our weather history database for the weather conditions in past years. The results will help you decide how hot, cold, wet, or windy it might be!

Date:

Astronomy

Dec. 06, 2012 Rise Set
Actual Time 8:16 AM CET 6:01 PM CET
Civil Twilight 7:47 AM CET 6:30 PM CET
Nautical Twilight 7:15 AM CET 7:02 PM CET
Astronomical Twilight 6:44 AM CET 7:33 PM CET
Moon 12:29 AM CET (12/6) 1:10 PM CET (12/6)
Length of Visible Light 10h 42m
Length of Day
9h 45m
Waning Gibbous, 52% of the Moon is Illuminated
Dec 6
Waning Gibbous
Dec 6
Last Quarter
Dec 13
New
Dec 20
First Quarter
Dec 28
Full

Hourly Weather History & Observations

Time (CET) Temp. Dew Point Humidity Pressure Visibility Wind Dir Wind Speed Gust Speed Precip Events Conditions
12:00 AM 53.6 °F 41.0 °F 62% 30.15 in 6.2 mi WNW 11.5 mph - N/A   Partly Cloudy
12:30 AM 53.6 °F 41.0 °F 62% 30.15 in 6.2 mi WNW 11.5 mph - N/A   Partly Cloudy
1:00 AM 55 °F 41 °F 47% 30.19 in 16 mi WNW 12.7 mph - -   Scattered Clouds
1:00 AM 53.6 °F 41.0 °F 62% 30.18 in 6.2 mi WNW 12.7 mph - N/A   Partly Cloudy
1:30 AM 53.6 °F 41.0 °F 62% 30.18 in 6.2 mi WNW 12.7 mph - N/A   Partly Cloudy
2:30 AM 53.6 °F 41.0 °F 62% 30.15 in 6.2 mi WNW 18.4 mph - N/A   Partly Cloudy
3:00 AM 53.6 °F 41.0 °F 62% 30.15 in 6.2 mi West 16.1 mph - N/A   Partly Cloudy
3:30 AM 53.6 °F 41.0 °F 62% 30.15 in 6.2 mi West 15.0 mph - N/A   Partly Cloudy
4:00 AM 53.6 °F 39.2 °F 58% 30.15 in 6.2 mi West 13.8 mph - N/A   Partly Cloudy
4:30 AM 53.6 °F 39.2 °F 58% 30.15 in 6.2 mi WNW 13.8 mph - N/A   Partly Cloudy
5:00 AM 51.8 °F 41.0 °F 67% 30.15 in 6.2 mi WNW 9.2 mph - N/A   Partly Cloudy
5:30 AM 53.6 °F 41.0 °F 62% 30.15 in 6.2 mi West 15.0 mph - N/A   Partly Cloudy
6:00 AM 51.8 °F 41.0 °F 67% 30.15 in 6.2 mi West 13.8 mph - N/A   Partly Cloudy
6:30 AM 53.6 °F 41.0 °F 62% 30.15 in 6.2 mi West 11.5 mph - N/A   Partly Cloudy
7:00 AM 53 °F 41 °F 52% 30.18 in 16 mi West 11.5 mph - -   Scattered Clouds
7:00 AM 53.6 °F 41.0 °F 62% 30.15 in 6.2 mi WNW 10.4 mph - N/A   Partly Cloudy
7:30 AM 51.8 °F 41.0 °F 67% 30.18 in 6.2 mi WNW 10.4 mph - N/A   Partly Cloudy
8:00 AM 51.8 °F 41.0 °F 67% 30.18 in 6.2 mi WNW 10.4 mph - N/A   Partly Cloudy
8:30 AM 48.2 °F 41.0 °F 76% 30.18 in 6.2 mi WNW 9.2 mph - N/A   Partly Cloudy
9:00 AM 48.2 °F 41.0 °F 76% 30.18 in 6.2 mi WNW 8.1 mph - N/A   Partly Cloudy
9:30 AM 50.0 °F 42.8 °F 76% 30.18 in 6.2 mi NW 5.8 mph - N/A   Scattered Clouds
10:00 AM 50.0 °F 42.8 °F 76% 30.18 in 6.2 mi WNW 9.2 mph - N/A   Scattered Clouds
10:30 AM 53.6 °F 44.6 °F 72% 30.21 in 6.2 mi NW 6.9 mph - N/A   Scattered Clouds
11:00 AM 55.4 °F 44.6 °F 67% 30.21 in 6.2 mi WNW 6.9 mph - N/A   Scattered Clouds
11:30 AM 57.2 °F 46.4 °F 67% 30.21 in 6.2 mi WNW 8.1 mph - N/A   Scattered Clouds
12:00 PM 59.0 °F 42.8 °F 55% 30.21 in 6.2 mi NW 4.6 mph - N/A   Scattered Clouds
12:30 PM 59.0 °F 44.6 °F 59% 30.18 in 6.2 mi Variable 2.3 mph - N/A   Partly Cloudy
1:00 PM 61 °F 46 °F 46% 30.17 in 19 mi 2.3 mph - -   Scattered Clouds
1:00 PM 60.8 °F 44.6 °F 55% 30.18 in 6.2 mi Variable 2.3 mph - N/A   Partly Cloudy
1:30 PM 60.8 °F 44.6 °F 55% 30.18 in 6.2 mi Variable 1.2 mph - N/A   Partly Cloudy
2:00 PM 60.8 °F 46.4 °F 59% 30.15 in 6.2 mi Calm Calm - N/A   Partly Cloudy
2:30 PM 60.8 °F 48.2 °F 63% 30.15 in 6.2 mi Calm Calm - N/A   Partly Cloudy
3:00 PM 59.0 °F 48.2 °F 67% 30.15 in 6.2 mi Variable 1.2 mph - N/A   Partly Cloudy
3:30 PM 59.0 °F 50.0 °F 72% 30.15 in 6.2 mi SSE 3.5 mph - N/A   Partly Cloudy
4:00 PM 59.0 °F 50.0 °F 72% 30.15 in 6.2 mi SSE 4.6 mph - N/A   Partly Cloudy
4:30 PM 59.0 °F 50.0 °F 72% 30.15 in 6.2 mi South 4.6 mph - N/A   Partly Cloudy
5:00 PM 59.0 °F 50.0 °F 72% 30.12 in 6.2 mi Variable 2.3 mph - N/A   Partly Cloudy
5:30 PM 57.2 °F 50.0 °F 77% 30.12 in 6.2 mi Variable 2.3 mph - N/A   Partly Cloudy
6:00 PM 57.2 °F 50.0 °F 77% 30.12 in 6.2 mi SSW 5.8 mph - N/A   Scattered Clouds
6:30 PM 57.2 °F 50.0 °F 77% 30.15 in 6.2 mi WNW 1.2 mph - N/A   Scattered Clouds
7:00 PM 58 °F 50 °F 67% 30.16 in 19 mi Calm Calm - -   Scattered Clouds
7:00 PM 57.2 °F 50.0 °F 77% 30.12 in 6.2 mi Calm Calm - N/A   Scattered Clouds
7:30 PM 55.4 °F 50.0 °F 82% 30.15 in 6.2 mi Variable 1.2 mph - N/A   Mostly Cloudy
8:00 PM 55.4 °F 50.0 °F 82% 30.15 in 6.2 mi Variable 2.3 mph - N/A   Mostly Cloudy
8:30 PM 55.4 °F 50.0 °F 82% 30.12 in 6.2 mi Calm Calm - N/A   Mostly Cloudy
9:00 PM 55.4 °F 50.0 °F 82% 30.15 in 6.2 mi SW 2.3 mph - N/A   Mostly Cloudy
9:30 PM 55.4 °F 50.0 °F 82% 30.15 in 6.2 mi WSW 1.2 mph - N/A   Mostly Cloudy
10:00 PM 53.6 °F 50.0 °F 88% 30.15 in 6.2 mi West 1.2 mph - N/A   Mostly Cloudy
10:30 PM 55.4 °F 50.0 °F 82% 30.15 in 6.2 mi WNW 5.8 mph - N/A   Mostly Cloudy
11:00 PM 53.6 °F 51.8 °F 94% 30.15 in 6.2 mi WNW 5.8 mph - N/A   Drizzle
11:30 PM 53.6 °F 51.8 °F 94% 30.12 in 6.2 mi NNW 2.3 mph - N/A   Mostly Cloudy